Time,TemperatureF,DewpointF,PressureIn,WindDirection,WindDirectionDegrees,WindSpeedMPH,WindSpeedGustMPH,Humidity,HourlyPrecipIn,Conditions,Clouds,dailyrainin,SolarRadiationWatts/m^2,SoftwareType,DateUTC
2013-04-23 00:02:00,56.0,23.0,-100.00,East,94,7.0,9.0,28,0.00,,,0.00,0.000000,,2013-04-23 10:02:00,
2013-04-23 00:12:00,56.0,23.0,-100.00,East,94,7.0,9.0,28,0.00,,,0.00,0.000000,,2013-04-23 10:12:00,
2013-04-23 00:22:00,56.0,23.0,-100.00,East,94,7.0,9.0,28,0.00,,,0.00,0.000000,,2013-04-23 10:22:00,
2013-04-23 00:32:00,56.0,23.0,-100.00,East,94,7.0,9.0,28,0.00,,,0.00,0.000000,,2013-04-23 10:32:00,
2013-04-23 00:52:00,57.0,23.0,-100.00,East,97,7.0,10.0,27,0.00,,,0.00,0.000000,,2013-04-23 10:52:00,
2013-04-23 01:02:00,57.0,23.0,-100.00,East,97,7.0,10.0,27,0.00,,,0.00,0.000000,,2013-04-23 11:02:00,
2013-04-23 01:12:00,57.0,23.0,-100.00,East,97,7.0,10.0,27,0.00,,,0.00,0.000000,,2013-04-23 11:12:00,
2013-04-23 01:21:00,57.0,23.0,-100.00,East,97,7.0,10.0,27,0.00,,,0.00,0.000000,,2013-04-23 11:21:00,
2013-04-23 01:32:00,57.0,23.0,-100.00,East,97,7.0,10.0,27,0.00,,,0.00,0.000000,,2013-04-23 11:32:00,
2013-04-23 01:53:00,50.0,23.0,-100.00,SSE,149,1.0,9.0,34,0.00,,,0.00,0.000000,,2013-04-23 11:53:00,
2013-04-23 02:02:00,50.0,23.0,-100.00,SSE,149,1.0,9.0,34,0.00,,,0.00,0.000000,,2013-04-23 12:02:00,
2013-04-23 02:12:00,50.0,23.0,-100.00,SSE,149,1.0,9.0,34,0.00,,,0.00,0.000000,,2013-04-23 12:12:00,
2013-04-23 02:22:00,50.0,23.0,-100.00,SSE,149,1.0,9.0,34,0.00,,,0.00,0.000000,,2013-04-23 12:22:00,
2013-04-23 02:32:00,50.0,23.0,-100.00,SSE,149,1.0,9.0,34,0.00,,,0.00,0.000000,,2013-04-23 12:32:00,
2013-04-23 02:52:00,50.0,34.0,-100.00,SE,128,4.0,7.0,53,0.00,,,0.00,0.000000,,2013-04-23 12:52:00,
2013-04-23 03:01:00,50.0,34.0,-100.00,SE,128,4.0,7.0,53,0.00,,,0.00,0.000000,,2013-04-23 13:01:00,
2013-04-23 03:11:00,50.0,34.0,-100.00,SE,128,4.0,7.0,53,0.00,,,0.00,0.000000,,2013-04-23 13:11:00,
2013-04-23 03:21:00,50.0,34.0,-100.00,SE,128,4.0,7.0,53,0.00,,,0.00,0.000000,,2013-04-23 13:21:00,
2013-04-23 03:32:00,50.0,34.0,-100.00,SE,128,4.0,7.0,53,0.00,,,0.00,0.000000,,2013-04-23 13:32:00,
2013-04-23 03:52:00,52.0,25.0,-100.00,East,80,4.0,10.0,34,0.00,,,0.00,0.000000,,2013-04-23 13:52:00,
2013-04-23 04:01:00,52.0,25.0,-100.00,East,80,4.0,10.0,34,0.00,,,0.00,0.000000,,2013-04-23 14:01:00,
2013-04-23 04:11:00,52.0,25.0,-100.00,East,80,4.0,10.0,34,0.00,,,0.00,0.000000,,2013-04-23 14:11:00,
2013-04-23 04:22:00,52.0,25.0,-100.00,East,80,4.0,10.0,34,0.00,,,0.00,0.000000,,2013-04-23 14:22:00,
2013-04-23 04:31:00,52.0,25.0,-100.00,East,80,4.0,10.0,34,0.00,,,0.00,0.000000,,2013-04-23 14:31:00,
2013-04-23 04:52:00,53.0,25.0,-100.00,ESE,111,1.0,7.0,33,0.00,,,0.00,0.000000,,2013-04-23 14:52:00,
2013-04-23 05:01:00,53.0,25.0,-100.00,ESE,111,1.0,7.0,33,0.00,,,0.00,0.000000,,2013-04-23 15:01:00,
2013-04-23 05:12:00,53.0,25.0,-100.00,ESE,111,1.0,7.0,33,0.00,,,0.00,0.000000,,2013-04-23 15:12:00,
2013-04-23 05:21:00,53.0,25.0,-100.00,ESE,111,1.0,7.0,33,0.00,,,0.00,0.000000,,2013-04-23 15:21:00,
2013-04-23 05:32:00,53.0,25.0,-100.00,ESE,111,1.0,7.0,33,0.00,,,0.00,0.000000,,2013-04-23 15:32:00,
2013-04-23 05:33:00,53.0,24.0,-100.00,ENE,60,6.0,6.0,32,0.00,,,0.00,0.000000,,2013-04-23 15:33:00,
2013-04-23 05:53:00,53.0,24.0,-100.00,ENE,60,6.0,6.0,32,0.00,,,0.00,0.000000,,2013-04-23 15:53:00,
2013-04-23 06:02:00,53.0,24.0,-100.00,ENE,60,6.0,6.0,32,0.00,,,0.00,0.000000,,2013-04-23 16:02:00,
2013-04-23 06:12:00,53.0,24.0,-100.00,ENE,60,6.0,6.0,32,0.00,,,0.00,0.000000,,2013-04-23 16:12:00,
2013-04-23 06:23:00,53.0,24.0,-100.00,ENE,60,6.0,6.0,32,0.00,,,0.00,0.000000,,2013-04-23 16:23:00,
2013-04-23 06:53:00,56.0,25.0,-100.00,ENE,69,5.0,8.0,30,0.00,,,0.00,2.000000,,2013-04-23 16:53:00,
2013-04-23 07:02:00,56.0,25.0,-100.00,ENE,69,5.0,8.0,30,0.00,,,0.00,2.000000,,2013-04-23 17:02:00,
2013-04-23 07:11:00,56.0,25.0,-100.00,ENE,69,5.0,8.0,30,0.00,,,0.00,2.000000,,2013-04-23 17:11:00,
2013-04-23 07:22:00,56.0,25.0,-100.00,ENE,69,5.0,8.0,30,0.00,,,0.00,2.000000,,2013-04-23 17:22:00,
2013-04-23 07:32:00,56.0,25.0,-100.00,ENE,69,5.0,8.0,30,0.00,,,0.00,2.000000,,2013-04-23 17:32:00,
2013-04-23 07:53:00,68.0,30.0,-100.00,ENE,69,0.0,8.0,24,0.00,,,0.00,142.000000,,2013-04-23 17:53:00,
2013-04-23 08:02:00,68.0,30.0,-100.00,ENE,69,0.0,8.0,24,0.00,,,0.00,142.000000,,2013-04-23 18:02:00,
2013-04-23 08:12:00,68.0,30.0,-100.00,ENE,69,0.0,8.0,24,0.00,,,0.00,142.000000,,2013-04-23 18:12:00,
2013-04-23 08:22:00,68.0,30.0,-100.00,ENE,69,0.0,8.0,24,0.00,,,0.00,142.000000,,2013-04-23 18:22:00,
2013-04-23 08:31:00,68.0,30.0,-100.00,ENE,69,0.0,8.0,24,0.00,,,0.00,142.000000,,2013-04-23 18:31:00,
2013-04-23 08:52:00,70.0,37.0,-100.00,South,183,4.0,6.0,30,0.00,,,0.00,511.000000,,2013-04-23 18:52:00,
2013-04-23 09:02:00,70.0,37.0,-100.00,South,183,4.0,6.0,30,0.00,,,0.00,511.000000,,2013-04-23 19:02:00,
2013-04-23 09:11:00,70.0,37.0,-100.00,South,183,4.0,6.0,30,0.00,,,0.00,511.000000,,2013-04-23 19:11:00,
2013-04-23 09:21:00,70.0,37.0,-100.00,South,183,4.0,6.0,30,0.00,,,0.00,511.000000,,2013-04-23 19:21:00,
2013-04-23 09:32:00,70.0,37.0,-100.00,South,183,4.0,6.0,30,0.00,,,0.00,511.000000,,2013-04-23 19:32:00,
2013-04-23 09:52:00,67.0,49.0,-100.00,SW,222,6.0,7.0,52,0.00,,,0.00,809.000000,,2013-04-23 19:52:00,
2013-04-23 10:01:00,67.0,49.0,-100.00,SW,222,6.0,7.0,52,0.00,,,0.00,809.000000,,2013-04-23 20:01:00,
2013-04-23 10:11:00,67.0,49.0,-100.00,SW,222,6.0,7.0,52,0.00,,,0.00,809.000000,,2013-04-23 20:11:00,
2013-04-23 10:21:00,67.0,49.0,-100.00,SW,222,6.0,7.0,52,0.00,,,0.00,809.000000,,2013-04-23 20:21:00,
2013-04-23 10:31:00,67.0,49.0,-100.00,SW,222,6.0,7.0,52,0.00,,,0.00,809.000000,,2013-04-23 20:31:00,
2013-04-23 10:52:00,70.0,50.0,-100.00,SSW,211,6.0,10.0,49,0.00,,,0.00,1057.000000,,2013-04-23 20:52:00,
2013-04-23 11:01:00,70.0,50.0,-100.00,SSW,211,6.0,10.0,49,0.00,,,0.00,1057.000000,,2013-04-23 21:01:00,
2013-04-23 11:11:00,70.0,50.0,-100.00,SSW,211,6.0,10.0,49,0.00,,,0.00,1057.000000,,2013-04-23 21:11:00,
2013-04-23 11:21:00,70.0,50.0,-100.00,SSW,211,6.0,10.0,49,0.00,,,0.00,1057.000000,,2013-04-23 21:21:00,
2013-04-23 11:32:00,70.0,50.0,-100.00,SSW,211,6.0,10.0,49,0.00,,,0.00,1057.000000,,2013-04-23 21:32:00,
2013-04-23 11:52:00,72.0,53.0,-100.00,SW,229,6.0,12.0,51,0.00,,,0.00,1242.000000,,2013-04-23 21:52:00,
2013-04-23 12:03:00,72.0,53.0,-100.00,SW,229,6.0,12.0,51,0.00,,,0.00,1242.000000,,2013-04-23 22:03:00,
2013-04-23 12:12:00,72.0,53.0,-100.00,SW,229,6.0,12.0,51,0.00,,,0.00,1242.000000,,2013-04-23 22:12:00,
2013-04-23 12:22:00,72.0,53.0,-100.00,SW,229,6.0,12.0,51,0.00,,,0.00,1242.000000,,2013-04-23 22:22:00,
2013-04-23 12:32:00,72.0,53.0,-100.00,SW,229,6.0,12.0,51,0.00,,,0.00,1242.000000,,2013-04-23 22:32:00,
2013-04-23 12:52:00,70.0,53.0,-100.00,WSW,246,9.0,13.0,55,0.00,,,0.00,1339.000000,,2013-04-23 22:52:00,
2013-04-23 13:02:00,70.0,53.0,-100.00,WSW,246,9.0,13.0,55,0.00,,,0.00,1339.000000,,2013-04-23 23:02:00,
2013-04-23 13:12:00,70.0,53.0,-100.00,WSW,246,9.0,13.0,55,0.00,,,0.00,1339.000000,,2013-04-23 23:12:00,
2013-04-23 13:22:00,70.0,53.0,-100.00,WSW,246,9.0,13.0,55,0.00,,,0.00,1339.000000,,2013-04-23 23:22:00,
2013-04-23 13:31:00,70.0,53.0,-100.00,WSW,246,9.0,13.0,55,0.00,,,0.00,1339.000000,,2013-04-23 23:31:00,
2013-04-23 13:52:00,69.0,55.0,-100.00,West,271,7.0,15.0,60,0.00,,,0.00,1319.000000,,2013-04-23 23:52:00,
2013-04-23 14:01:00,69.0,55.0,-100.00,West,271,7.0,15.0,60,0.00,,,0.00,1319.000000,,2013-04-24 00:01:00,
2013-04-23 14:11:00,69.0,55.0,-100.00,West,271,7.0,15.0,60,0.00,,,0.00,1319.000000,,2013-04-24 00:11:00,
2013-04-23 14:21:00,69.0,55.0,-100.00,West,271,7.0,15.0,60,0.00,,,0.00,1319.000000,,2013-04-24 00:21:00,
2013-04-23 14:32:00,69.0,55.0,-100.00,West,271,7.0,15.0,60,0.00,,,0.00,1319.000000,,2013-04-24 00:32:00,
2013-04-23 14:52:00,67.0,53.0,-100.00,West,261,8.0,14.0,61,0.00,,,0.00,1226.000000,,2013-04-24 00:52:00,
2013-04-23 15:01:00,67.0,53.0,-100.00,West,261,8.0,14.0,61,0.00,,,0.00,1226.000000,,2013-04-24 01:01:00,
2013-04-23 15:11:00,67.0,53.0,-100.00,West,261,8.0,14.0,61,0.00,,,0.00,1226.000000,,2013-04-24 01:11:00,
2013-04-23 15:21:00,67.0,53.0,-100.00,West,261,8.0,14.0,61,0.00,,,0.00,1226.000000,,2013-04-24 01:21:00,
2013-04-23 15:31:00,67.0,53.0,-100.00,West,261,8.0,14.0,61,0.00,,,0.00,1226.000000,,2013-04-24 01:31:00,
2013-04-23 15:33:00,68.0,55.0,-100.00,West,266,8.0,14.0,63,0.00,,,0.00,977.000000,,2013-04-24 01:33:00,
2013-04-23 15:52:00,68.0,55.0,-100.00,West,266,8.0,14.0,63,0.00,,,0.00,977.000000,,2013-04-24 01:52:00,
2013-04-23 16:02:00,68.0,55.0,-100.00,West,266,8.0,14.0,63,0.00,,,0.00,977.000000,,2013-04-24 02:02:00,
2013-04-23 16:14:00,68.0,55.0,-100.00,West,266,8.0,14.0,63,0.00,,,0.00,977.000000,,2013-04-24 02:14:00,
2013-04-23 16:24:00,68.0,55.0,-100.00,West,266,8.0,14.0,63,0.00,,,0.00,977.000000,,2013-04-24 02:24:00,
2013-04-23 16:33:00,60.0,52.0,-100.00,NW,320,6.0,14.0,74,0.00,,,0.00,836.000000,,2013-04-24 02:33:00,
2013-04-23 16:58:00,60.0,52.0,-100.00,NW,320,6.0,14.0,74,0.00,,,0.00,836.000000,,2013-04-24 02:58:00,
2013-04-23 17:06:00,60.0,52.0,-100.00,NW,320,6.0,14.0,74,0.00,,,0.00,836.000000,,2013-04-24 03:06:00,
2013-04-23 17:14:00,60.0,52.0,-100.00,NW,320,6.0,14.0,74,0.00,,,0.00,836.000000,,2013-04-24 03:14:00,
2013-04-23 17:24:00,60.0,52.0,-100.00,NW,320,6.0,14.0,74,0.00,,,0.00,836.000000,,2013-04-24 03:24:00,
2013-04-23 17:33:00,61.0,54.0,-100.00,WNW,284,6.0,13.0,77,0.00,,,0.00,241.000000,,2013-04-24 03:33:00,
2013-04-23 18:00:00,61.0,54.0,-100.00,WNW,284,6.0,13.0,77,0.00,,,0.00,241.000000,,2013-04-24 04:00:00,
2013-04-23 18:03:00,61.0,54.0,-100.00,WNW,284,6.0,13.0,77,0.00,,,0.00,241.000000,,2013-04-24 04:03:00,
2013-04-23 18:12:00,61.0,54.0,-100.00,WNW,284,6.0,13.0,77,0.00,,,0.00,241.000000,,2013-04-24 04:12:00,
2013-04-23 18:22:00,61.0,54.0,-100.00,WNW,284,6.0,13.0,77,0.00,,,0.00,241.000000,,2013-04-24 04:22:00,
2013-04-23 18:53:00,57.0,53.0,-100.00,NW,309,3.0,10.0,88,0.00,,,0.00,109.000000,,2013-04-24 04:53:00,
2013-04-23 19:02:00,57.0,53.0,-100.00,NW,309,3.0,10.0,88,0.00,,,0.00,109.000000,,2013-04-24 05:02:00,
2013-04-23 19:12:00,57.0,53.0,-100.00,NW,309,3.0,10.0,88,0.00,,,0.00,109.000000,,2013-04-24 05:12:00,
2013-04-23 19:21:00,57.0,53.0,-100.00,NW,309,3.0,10.0,88,0.00,,,0.00,109.000000,,2013-04-24 05:21:00,
2013-04-23 19:32:00,57.0,53.0,-100.00,NW,309,3.0,10.0,88,0.00,,,0.00,109.000000,,2013-04-24 05:32:00,
2013-04-23 19:52:00,54.0,53.0,-100.00,NNE,29,1.0,7.0,95,0.00,,,0.00,28.000000,,2013-04-24 05:52:00,
2013-04-23 20:02:00,54.0,53.0,-100.00,NNE,29,1.0,7.0,95,0.00,,,0.00,28.000000,,2013-04-24 06:02:00,
2013-04-23 20:11:00,54.0,53.0,-100.00,NNE,29,1.0,7.0,95,0.00,,,0.00,28.000000,,2013-04-24 06:11:00,
2013-04-23 20:21:00,54.0,53.0,-100.00,NNE,29,1.0,7.0,95,0.00,,,0.00,28.000000,,2013-04-24 06:21:00,
2013-04-23 20:32:00,54.0,53.0,-100.00,NNE,29,1.0,7.0,95,0.00,,,0.00,28.000000,,2013-04-24 06:32:00,
2013-04-23 20:52:00,52.0,50.0,-100.00,NE,44,0.0,6.0,93,0.00,,,0.00,0.000000,,2013-04-24 06:52:00,
2013-04-23 21:02:00,52.0,50.0,-100.00,NE,44,0.0,6.0,93,0.00,,,0.00,0.000000,,2013-04-24 07:02:00,
2013-04-23 21:11:00,52.0,50.0,-100.00,NE,44,0.0,6.0,93,0.00,,,0.00,0.000000,,2013-04-24 07:11:00,
2013-04-23 21:21:00,52.0,50.0,-100.00,NE,44,0.0,6.0,93,0.00,,,0.00,0.000000,,2013-04-24 07:21:00,
2013-04-23 21:31:00,52.0,50.0,-100.00,NE,44,0.0,6.0,93,0.00,,,0.00,0.000000,,2013-04-24 07:31:00,
2013-04-23 21:33:00,51.0,50.0,-100.00,East,88,2.0,5.0,98,0.00,,,0.00,0.000000,,2013-04-24 07:33:00,
2013-04-23 21:52:00,51.0,50.0,-100.00,East,88,2.0,5.0,98,0.00,,,0.00,0.000000,,2013-04-24 07:52:00,
2013-04-23 22:01:00,51.0,50.0,-100.00,East,88,2.0,5.0,98,0.00,,,0.00,0.000000,,2013-04-24 08:01:00,
2013-04-23 22:11:00,51.0,50.0,-100.00,East,88,2.0,5.0,98,0.00,,,0.00,0.000000,,2013-04-24 08:11:00,
2013-04-23 22:21:00,51.0,50.0,-100.00,East,88,2.0,5.0,98,0.00,,,0.00,0.000000,,2013-04-24 08:21:00,
2013-04-23 22:52:00,50.0,38.0,-100.00,NNE,19,0.0,4.0,64,0.00,,,0.00,0.000000,,2013-04-24 08:52:00,
2013-04-23 23:01:00,50.0,38.0,-100.00,NNE,19,0.0,4.0,64,0.00,,,0.00,0.000000,,2013-04-24 09:01:00,
2013-04-23 23:11:00,50.0,38.0,-100.00,NNE,19,0.0,4.0,64,0.00,,,0.00,0.000000,,2013-04-24 09:11:00,
2013-04-23 23:21:00,50.0,38.0,-100.00,NNE,19,0.0,4.0,64,0.00,,,0.00,0.000000,,2013-04-24 09:21:00,
2013-04-23 23:32:00,50.0,38.0,-100.00,NNE,19,0.0,4.0,64,0.00,,,0.00,0.000000,,2013-04-24 09:32:00,
2013-04-23 23:53:00,53.0,29.0,-100.00,East,81,0.0,6.0,40,0.00,,,0.00,0.000000,,2013-04-24 09:53:00,